EDT,Max TemperatureF,Mean TemperatureF,Min TemperatureF,Max Dew PointF,MeanDew PointF,Min DewpointF,Max Humidity, Mean Humidity, Min Humidity, Max Sea Level PressureIn, Mean Sea Level PressureIn, Min Sea Level PressureIn, Max VisibilityMiles, Mean VisibilityMiles, Min VisibilityMiles, Max Wind SpeedMPH, Mean Wind SpeedMPH, Max Gust SpeedMPH,PrecipitationIn, CloudCover, Events, WindDirDegrees
2013-5-1,76,69,61,66,63,60,93,83,73,30.09,30.05,30.00,10,9,7,24,14,29,T,7,Rain,47
2013-5-2,71,69,67,68,66,64,97,91,84,30.04,29.98,29.94,10,4,2,26,14,32,1.55,8,Rain,66
2013-5-3,70,68,66,66,63,58,93,80,66,29.94,29.89,29.85,10,6,2,28,17,36,0.92,8,Rain,75
2013-5-4,70,68,65,67,64,59,100,85,70,29.85,29.80,29.75,10,3,1,28,17,35,1.35,8,Rain-Thunderstorm,75
2013-5-5,77,68,59,68,57,48,97,68,38,29.89,29.82,29.72,10,8,2,21,10,30,0.00,5,Rain,254
2013-5-6,72,62,52,56,49,44,93,66,38,29.99,29.94,29.87,10,10,10,16,8,24,0.00,2,,262
2013-5-7,78,66,53,57,54,51,93,70,46,30.03,29.96,29.91,10,10,10,20,8,26,0.00,5,,245
2013-5-8,81,68,54,59,55,53,100,70,39,30.11,30.06,30.01,10,10,8,16,5,23,0.00,1,,263
2013-5-9,85,73,60,64,59,54,100,67,34,30.14,30.11,30.08,10,9,4,15,6,17,0.00,2,,221
2013-5-10,87,74,60,68,61,57,97,67,37,30.14,30.07,30.00,10,10,7,16,6,23,0.00,3,,164
2013-5-11,89,77,65,70,66,62,93,70,46,30.05,29.99,29.94,10,9,1,29,7,39,0.10,7,Rain-Thunderstorm,243
2013-5-12,84,75,65,68,64,55,100,74,48,30.04,29.98,29.94,10,10,6,18,8,24,0.00,6,,262
2013-5-13,78,66,53,58,46,37,78,52,25,30.17,30.10,30.02,10,10,10,16,6,22,0.00,4,,327
2013-5-14,79,63,47,52,45,37,86,56,26,30.25,30.20,30.17,10,10,10,12,2,14,0.00,0,,74
2013-5-15,85,69,52,58,53,50,96,64,32,30.25,30.16,30.09,10,10,10,16,5,20,0.00,2,,173
2013-5-16,86,74,61,65,61,57,84,64,44,30.14,30.08,30.03,10,10,10,14,6,17,0.00,5,,179
2013-5-17,86,74,62,67,63,60,93,69,44,30.13,30.09,30.06,10,10,9,15,6,18,0.00,2,,157
2013-5-18,86,76,66,71,67,64,93,76,58,30.14,30.09,30.04,10,9,5,16,6,22,0.21,4,Rain-Thunderstorm,124
2013-5-19,85,77,68,72,69,66,100,83,65,30.12,30.07,30.03,10,10,8,16,6,24,0.18,5,Rain-Thunderstorm,146
2013-5-20,83,76,68,73,69,66,100,85,69,30.12,30.07,30.03,10,10,7,10,5,,0.06,7,Rain-Thunderstorm,151
2013-5-21,82,75,67,72,68,66,100,81,62,30.07,30.03,29.96,10,8,0,17,5,21,0.78,6,Fog-Rain-Thunderstorm,141
2013-5-22,81,73,64,72,68,64,100,81,62,30.01,29.98,29.94,10,8,2,15,3,18,0.24,4,Rain-Thunderstorm,112
2013-5-23,90,78,66,70,67,63,97,69,41,29.99,29.96,29.91,10,10,7,15,5,20,T,4,Rain,277
2013-5-24,88,76,63,68,60,51,100,65,29,30.13,30.03,29.95,10,10,7,18,8,28,0.00,2,,305
2013-5-25,80,70,60,60,55,50,90,65,39,30.27,30.21,30.13,10,10,10,18,6,22,0.00,4,,64
2013-5-26,83,69,55,61,54,49,93,63,33,30.25,30.21,30.17,10,10,10,15,4,20,0.00,5,,102
2013-5-27,83,71,58,64,61,56,93,70,47,30.23,30.20,30.15,10,10,10,16,5,21,0.00,4,,108
2013-5-28,83,72,61,66,64,60,93,72,51,30.20,30.17,30.15,10,10,10,17,7,22,0.00,4,,95
2013-5-29,85,75,64,72,69,62,93,77,61,30.19,30.16,30.12,10,10,10,21,10,25,0.00,3,,95
2013-5-30,86,79,71,72,70,68,87,73,59,30.19,30.15,30.12,10,10,7,21,10,28,T,5,Rain,102
2013-5-31,85,77,68,71,69,66,97,79,61,30.17,30.14,30.11,10,10,9,21,10,26,T,4,,98